StationID,Date,MaxTemp,MinTemp,Precipitation,Snowfall,SnowDepth
"CA003012210","1955-11-01",19.04,15.98,0.00,0.00,180.00
"CA003012210","1955-11-02",17.06,8.06,0.00,0.00,180.00
"CA003012210","1955-11-03",17.06,8.06,48.00,48.00,180.00
"CA003012210","1955-11-04",15.98,6.08,5.00,5.00,230.00
"CA003012210","1955-11-05",21.02,1.94,0.00,0.00,230.00
"CA003012210","1955-11-06",26.96,10.04,0.00,0.00,230.00
"CA003012210","1955-11-07",39.92,17.06,0.00,0.00,220.00
"CA003012210","1955-11-08",46.04,32.00,3.00,0.00,180.00
"CA003012210","1955-11-09",41.00,32.00,3.00,0.00,40.00
"CA003012210","1955-11-10",35.96,5.00,0.00,0.00,40.00
"CA003012210","1955-11-11",-7.96,-13.00,0.00,0.00,40.00
"CA003012210","1955-11-12",-5.98,-16.06,0.00,0.00,40.00
"CA003012210","1955-11-13",-4.00,-14.98,0.00,0.00,40.00
"CA003012210","1955-11-14",-2.92,-16.06,0.00,0.00,40.00
"CA003012210","1955-11-15",3.02,-11.02,0.00,0.00,40.00
"CA003012210","1955-11-16",6.08,-7.96,0.00,0.00,40.00
"CA003012210","1955-11-17",10.94,-2.92,0.00,0.00,40.00
"CA003012210","1955-11-18",5.00,-7.96,0.00,0.00,40.00
"CA003012210","1955-11-19",5.00,-5.08,3.00,3.00,30.00
"CA003012210","1955-11-20",8.96,-4.00,0.00,0.00,40.00
"CA003012210","1955-11-21",6.08,-4.00,20.00,20.00,30.00
"CA003012210","1955-11-22",-5.98,-9.94,0.00,0.00,40.00
"CA003012210","1955-11-23",-11.02,-20.02,15.00,15.00,40.00
"CA003012210","1955-11-24",-2.92,-14.98,5.00,5.00,50.00
"CA003012210","1955-11-25",-5.08,-9.04,5.00,5.00,60.00
"CA003012210","1955-11-26",3.02,-18.04,0.00,0.00,60.00
"CA003012210","1955-11-27",6.08,-4.00,0.00,0.00,60.00
"CA003012210","1955-11-28",3.02,-16.96,0.00,0.00,60.00
"CA003012210","1955-11-29",12.02,-11.02,0.00,0.00,60.00
"CA003012210","1955-11-30",26.96,5.00,0.00,0.00,60.00
"CA003012210","1955-12-01",17.96,15.08,0.00,0.00,60.00
"CA003012210","1955-12-02",15.08,10.94,5.00,5.00,60.00
"CA003012210","1955-12-03",12.92,3.02,8.00,8.00,70.00
"CA003012210","1955-12-04",12.02,5.00,13.00,13.00,80.00
"CA003012210","1955-12-05",6.98,1.94,0.00,0.00,100.00
"CA003012210","1955-12-06",5.00,-2.02,0.00,0.00,100.00
"CA003012210","1955-12-07",8.06,-4.00,0.00,0.00,100.00
"CA003012210","1955-12-08",15.08,-2.92,0.00,0.00,100.00
"CA003012210","1955-12-09",26.06,6.08,0.00,0.00,100.00
"CA003012210","1955-12-10",24.08,12.92,0.00,0.00,100.00
"CA003012210","1955-12-11",12.92,5.00,0.00,0.00,90.00
"CA003012210","1955-12-12",14.00,-14.08,20.00,20.00,90.00
"CA003012210","1955-12-13",1.94,-11.92,0.00,0.00,110.00
"CA003012210","1955-12-14",6.98,-9.94,0.00,0.00,110.00
"CA003012210","1955-12-15",15.98,-2.02,0.00,0.00,110.00
"CA003012210","1955-12-16",15.98,8.96,3.00,3.00,110.00
"CA003012210","1955-12-17",-9.94,-18.94,0.00,0.00,120.00
"CA003012210","1955-12-18",-9.94,-23.08,0.00,0.00,120.00
"CA003012210","1955-12-19",-9.04,-20.02,10.00,10.00,120.00
"CA003012210","1955-12-20",-9.04,-16.06,10.00,10.00,130.00
"CA003012210","1955-12-21",-2.92,-9.94,25.00,25.00,130.00
"CA003012210","1955-12-22",-2.02,-9.94,5.00,5.00,160.00
"CA003012210","1955-12-23",-11.02,-16.06,8.00,8.00,160.00
"CA003012210","1955-12-24",-11.02,-18.94,0.00,0.00,170.00
"CA003012210","1955-12-25",-5.98,-14.98,0.00,0.00,160.00
"CA003012210","1955-12-26",1.04,-14.98,196.00,196.00,160.00
"CA003012210","1955-12-27",-5.08,-11.92,41.00,41.00,360.00
"CA003012210","1955-12-28",12.92,-14.08,0.00,0.00,400.00
"CA003012210","1955-12-29",24.08,3.92,0.00,0.00,400.00
"CA003012210","1955-12-30",26.06,12.92,0.00,0.00,400.00
"CA003012210","1955-12-31",12.02,-2.02,0.00,0.00,400.00
"CA003012210","1956-01-01",21.02,-0.94,0.00,0.00,400.00
"CA003012210","1956-01-02",1.94,-5.08,0.00,0.00,400.00
"CA003012210","1956-01-03",10.04,-9.04,0.00,0.00,400.00
"CA003012210","1956-01-04",12.92,-4.00,91.00,91.00,400.00
"CA003012210","1956-01-05",-2.02,-9.94,0.00,0.00,480.00
"CA003012210","1956-01-06",1.94,-9.94,0.00,0.00,480.00
"CA003012210","1956-01-07",-4.00,-13.00,5.00,5.00,480.00
"CA003012210","1956-01-08",3.92,-9.94,0.00,0.00,490.00
"CA003012210","1956-01-09",1.94,-11.02,0.00,0.00,490.00
"CA003012210","1956-01-10",1.94,-9.94,0.00,0.00,490.00
"CA003012210","1956-01-11",-0.04,-2.92,0.00,0.00,490.00
"CA003012210","1956-01-12",-0.94,-7.06,0.00,0.00,490.00
"CA003012210","1956-01-13",-0.94,-11.92,28.00,28.00,490.00
"CA003012210","1956-01-14",-7.96,-11.02,18.00,18.00,510.00
"CA003012210","1956-01-15",-9.94,-18.04,10.00,10.00,530.00
"CA003012210","1956-01-16",-7.96,-13.00,5.00,5.00,540.00
"CA003012210","1956-01-17",-2.02,-16.96,0.00,0.00,550.00
"CA003012210","1956-01-18",6.08,-11.92,3.00,3.00,550.00
"CA003012210","1956-01-19",6.08,-2.92,0.00,0.00,550.00
"CA003012210","1956-01-20",12.92,-0.94,0.00,0.00,550.00
"CA003012210","1956-01-21",10.94,-0.04,0.00,0.00,550.00
"CA003012210","1956-01-22",8.96,-5.08,8.00,8.00,550.00
"CA003012210","1956-01-23",10.04,-2.02,0.00,0.00,560.00
"CA003012210","1956-01-24",12.92,1.04,0.00,0.00,560.00
"CA003012210","1956-01-25",12.92,5.00,5.00,5.00,560.00
"CA003012210","1956-01-26",8.06,-2.02,8.00,8.00,560.00
"CA003012210","1956-01-27",1.04,-5.08,23.00,23.00,570.00
"CA003012210","1956-01-28",-5.08,-9.94,3.00,3.00,590.00
"CA003012210","1956-01-29",-9.94,-18.94,0.00,0.00,590.00
"CA003012210","1956-01-30",-5.08,-18.94,0.00,0.00,590.00
"CA003012210","1956-01-31",12.92,-13.00,0.00,0.00,590.00
"CA003012210","1956-02-01",26.96,5.00,0.00,0.00,540.00
"CA003012210","1956-02-02",35.06,19.94,0.00,0.00,520.00
"CA003012210","1956-02-03",37.94,26.06,3.00,3.00,510.00
"CA003012210","1956-02-04",35.06,28.94,28.00,28.00,510.00
"CA003012210","1956-02-05",35.96,24.98,3.00,3.00,540.00
"CA003012210","1956-02-06",37.04,28.94,0.00,0.00,520.00
"CA003012210","1956-02-07",33.98,23.00,0.00,0.00,520.00
"CA003012210","1956-02-08",44.96,17.96,0.00,0.00,380.00
"CA003012210","1956-02-09",39.92,26.06,0.00,0.00,300.00
"CA003012210","1956-02-10",37.04,28.94,0.00,0.00,270.00
"CA003012210","1956-02-11",21.92,6.98,13.00,13.00,260.00
"CA003012210","1956-02-12",8.96,-2.02,38.00,38.00,270.00
"CA003012210","1956-02-13",-13.00,-23.98,0.00,0.00,310.00
"CA003012210","1956-02-14",-18.94,-27.04,3.00,3.00,310.00
"CA003012210","1956-02-15",-14.08,-32.08,0.00,0.00,310.00
"CA003012210","1956-02-16",19.94,-25.06,8.00,8.00,310.00
"CA003012210","1956-02-17",6.98,-2.02,0.00,0.00,320.00
"CA003012210","1956-02-18",10.94,-2.02,0.00,0.00,320.00
"CA003012210","1956-02-19",3.92,-16.96,0.00,0.00,320.00
"CA003012210","1956-02-20",-0.04,-9.04,0.00,0.00,320.00
"CA003012210","1956-02-21",3.92,-5.08,84.00,84.00,320.00
"CA003012210","1956-02-22",1.04,-2.92,8.00,8.00,410.00
"CA003012210","1956-02-23",-0.94,-16.96,0.00,0.00,410.00
"CA003012210","1956-02-24",1.04,-20.02,0.00,0.00,410.00
"CA003012210","1956-02-25",-0.04,-13.00,0.00,0.00,410.00
"CA003012210","1956-02-26",6.08,-14.98,0.00,0.00,410.00
"CA003012210","1956-02-27",21.02,-9.04,0.00,0.00,410.00
"CA003012210","1956-02-28",19.94,-0.04,0.00,0.00,410.00
"CA003012210","1956-02-29",28.94,6.98,0.00,0.00,410.00
"CA003012210","1956-03-01",33.98,17.06,0.00,0.00,410.00
"CA003012210","1956-03-02",26.96,10.04,0.00,0.00,400.00
"CA003012210","1956-03-03",21.92,17.06,41.00,41.00,390.00
"CA003012210","1956-03-04",8.06,-0.04,3.00,3.00,430.00
"CA003012210","1956-03-05",6.08,-13.00,3.00,3.00,430.00
"CA003012210","1956-03-06",8.06,-4.00,0.00,0.00,430.00
"CA003012210","1956-03-07",21.02,-0.94,0.00,0.00,430.00
"CA003012210","1956-03-08",14.00,3.92,3.00,3.00,430.00
"CA003012210","1956-03-09",1.04,-4.00,8.00,8.00,440.00
"CA003012210","1956-03-10",-2.02,-18.94,0.00,0.00,440.00
"CA003012210","1956-03-11",26.06,-16.06,0.00,0.00,440.00
"CA003012210","1956-03-12",28.94,21.02,5.00,5.00,440.00
"CA003012210","1956-03-13",21.02,12.02,5.00,5.00,410.00
"CA003012210","1956-03-14",33.08,10.94,3.00,3.00,400.00
"CA003012210","1956-03-15",41.00,24.98,0.00,0.00,380.00
"CA003012210","1956-03-16",42.08,33.98,0.00,0.00,320.00
"CA003012210","1956-03-17",46.94,28.94,0.00,0.00,300.00
"CA003012210","1956-03-18",48.92,28.94,0.00,0.00,250.00
"CA003012210","1956-03-19",37.04,26.06,56.00,56.00,190.00
"CA003012210","1956-03-20",32.00,24.08,0.00,0.00,210.00
"CA003012210","1956-03-21",33.98,10.94,8.00,8.00,200.00
"CA003012210","1956-03-22",28.04,24.08,0.00,0.00,200.00
"CA003012210","1956-03-23",32.00,21.92,0.00,0.00,200.00
"CA003012210","1956-03-24",44.06,26.06,0.00,0.00,190.00
"CA003012210","1956-03-25",39.02,17.96,51.00,51.00,140.00
"CA003012210","1956-03-26",32.00,28.94,3.00,3.00,180.00
"CA003012210","1956-03-27",26.96,15.98,0.00,0.00,180.00
"CA003012210","1956-03-28",28.04,10.94,0.00,0.00,180.00
"CA003012210","1956-03-29",24.98,15.98,0.00,0.00,170.00
"CA003012210","1956-03-30",26.06,15.98,8.00,8.00,170.00
"CA003012210","1956-03-31",28.94,19.94,3.00,3.00,150.00
"CA003012210","1956-04-01",33.08,17.96,0.00,0.00,140.00
"CA003012210","1956-04-02",44.96,21.02,0.00,0.00,130.00
"CA003012210","1956-04-03",44.06,33.08,58.00,58.00,110.00
"CA003012210","1956-04-04",39.02,32.00,0.00,0.00,150.00
"CA003012210","1956-04-05",32.00,19.94,0.00,0.00,130.00
"CA003012210","1956-04-06",37.94,21.92,0.00,0.00,130.00
"CA003012210","1956-04-07",39.02,26.06,0.00,0.00,110.00
"CA003012210","1956-04-08",48.02,28.04,0.00,0.00,90.00
"CA003012210","1956-04-09",46.04,32.00,0.00,0.00,50.00
"CA003012210","1956-04-10",41.00,26.06,0.00,0.00,50.00
"CA003012210","1956-04-11",42.98,24.98,0.00,0.00,50.00
"CA003012210","1956-04-12",57.02,30.02,0.00,0.00,50.00
"CA003012210","1956-04-13",57.02,39.92,0.00,0.00,30.00
"CA003012210","1956-04-14",57.02,33.08,0.00,0.00,0.00
"CA003012210","1956-04-15",57.92,35.06,0.00,0.00,0.00
"CA003012210","1956-04-16",35.06,32.00,74.00,74.00,0.00
"CA003012210","1956-04-17",41.00,32.00,5.00,5.00,80.00
"CA003012210","1956-04-18",57.92,30.02,0.00,0.00,0.00
"CA003012210","1956-04-19",59.00,39.92,0.00,0.00,0.00
"CA003012210","1956-04-20",51.08,35.96,0.00,0.00,0.00
"CA003012210","1956-04-21",42.98,33.98,0.00,0.00,0.00
"CA003012210","1956-04-22",46.94,32.00,0.00,0.00,0.00
"CA003012210","1956-04-23",46.94,30.92,15.00,15.00,0.00
"CA003012210","1956-04-24",30.02,21.92,0.00,0.00,0.00
"CA003012210","1956-04-25",44.06,23.00,0.00,0.00,0.00
"CA003012210","1956-04-26",26.06,3.02,0.00,0.00,0.00
"CA003012210","1956-04-27",28.04,12.02,3.00,3.00,0.00
"CA003012210","1956-04-28",35.96,17.96,0.00,0.00,0.00
"CA003012210","1956-04-29",32.00,24.08,3.00,3.00,0.00
"CA003012210","1956-04-30",37.94,26.06,10.00,10.00,0.00
"CA003012210","1956-05-01",42.98,26.06,0.00,0.00,0.00
"CA003012210","1956-05-02",44.96,26.06,0.00,0.00,0.00
"CA003012210","1956-05-03",51.08,30.92,0.00,0.00,0.00
"CA003012210","1956-05-04",55.94,30.02,0.00,0.00,0.00
"CA003012210","1956-05-05",57.92,33.98,0.00,0.00,0.00
"CA003012210","1956-05-06",59.00,37.94,0.00,0.00,0.00
"CA003012210","1956-05-07",66.02,35.06,0.00,0.00,0.00
"CA003012210","1956-05-08",64.94,44.06,0.00,0.00,0.00
"CA003012210","1956-05-09",69.08,39.92,0.00,0.00,0.00
"CA003012210","1956-05-10",69.98,46.94,0.00,0.00,0.00
"CA003012210","1956-05-11",53.96,39.92,0.00,0.00,0.00
"CA003012210","1956-05-12",55.94,35.96,0.00,0.00,0.00
"CA003012210","1956-05-13",62.06,35.06,0.00,0.00,0.00
"CA003012210","1956-05-14",57.92,46.04,13.00,0.00,0.00
"CA003012210","1956-05-15",73.94,42.08,0.00,0.00,0.00
"CA003012210","1956-05-16",73.94,51.08,0.00,0.00,0.00
"CA003012210","1956-05-17",77.00,51.98,0.00,0.00,0.00
"CA003012210","1956-05-18",80.06,48.02,0.00,0.00,0.00
"CA003012210","1956-05-19",77.00,48.02,0.00,0.00,0.00
"CA003012210","1956-05-20",80.96,50.00,0.00,0.00,0.00
"CA003012210","1956-05-21",68.00,53.96,0.00,0.00,0.00
"CA003012210","1956-05-22",71.06,46.04,5.00,0.00,0.00
"CA003012210","1956-05-23",78.08,51.08,0.00,0.00,0.00
"CA003012210","1956-05-24",69.08,53.06,10.00,0.00,0.00
"CA003012210","1956-05-25",75.92,44.06,0.00,0.00,0.00
"CA003012210","1956-05-26",78.08,51.98,0.00,0.00,0.00
"CA003012210","1956-05-27",66.02,53.06,0.00,0.00,0.00
"CA003012210","1956-05-28",71.06,42.98,18.00,0.00,0.00
"CA003012210","1956-05-29",62.06,48.02,0.00,0.00,0.00
"CA003012210","1956-05-30",69.08,39.92,0.00,0.00,0.00
"CA003012210","1956-05-31",84.92,51.98,0.00,0.00,0.00
"CA003012210","1956-06-01",84.92,59.00,38.00,0.00,0.00
"CA003012210","1956-06-02",75.92,55.04,0.00,0.00,0.00
"CA003012210","1956-06-03",77.00,51.08,0.00,0.00,0.00
"CA003012210","1956-06-04",78.08,53.96,36.00,0.00,0.00
"CA003012210","1956-06-05",73.94,51.98,64.00,0.00,0.00
"CA003012210","1956-06-06",60.08,42.98,0.00,0.00,0.00
"CA003012210","1956-06-07",68.00,41.00,0.00,0.00,0.00
"CA003012210","1956-06-08",73.04,46.94,0.00,0.00,0.00
"CA003012210","1956-06-09",82.94,53.96,0.00,0.00,0.00
"CA003012210","1956-06-10",84.92,48.92,13.00,0.00,0.00
"CA003012210","1956-06-11",64.04,48.02,0.00,0.00,0.00
"CA003012210","1956-06-12",60.08,46.94,0.00,0.00,0.00
"CA003012210","1956-06-13",66.92,41.00,0.00,0.00,0.00
"CA003012210","1956-06-14",66.92,42.98,25.00,0.00,0.00
"CA003012210","1956-06-15",51.98,48.92,257.00,0.00,0.00
"CA003012210","1956-06-16",50.00,46.04,249.00,0.00,0.00
"CA003012210","1956-06-17",68.00,46.94,0.00,0.00,0.00
"CA003012210","1956-06-18",75.02,50.00,0.00,0.00,0.00
"CA003012210","1956-06-19",80.06,53.96,0.00,0.00,0.00
"CA003012210","1956-06-20",69.98,60.08,0.00,0.00,0.00
"CA003012210","1956-06-21",64.94,51.08,0.00,0.00,0.00
"CA003012210","1956-06-22",62.06,48.92,0.00,0.00,0.00
"CA003012210","1956-06-23",71.96,48.02,353.00,0.00,0.00
"CA003012210","1956-06-24",51.98,48.92,71.00,0.00,0.00
"CA003012210","1956-06-25",62.96,46.94,0.00,0.00,0.00
"CA003012210","1956-06-26",66.02,46.04,0.00,0.00,0.00
"CA003012210","1956-06-27",73.94,48.02,30.00,0.00,0.00
"CA003012210","1956-06-28",62.96,48.02,112.00,0.00,0.00
"CA003012210","1956-06-29",60.98,48.92,20.00,0.00,0.00
"CA003012210","1956-06-30",64.94,50.00,51.00,0.00,0.00
"CA003012210","1956-07-01",66.02,50.00,0.00,0.00,0.00
"CA003012210","1956-07-02",68.00,46.04,0.00,0.00,0.00
"CA003012210","1956-07-03",69.98,48.02,0.00,0.00,0.00
"CA003012210","1956-07-04",69.98,48.92,0.00,0.00,0.00
"CA003012210","1956-07-05",75.02,50.00,10.00,0.00,0.00
"CA003012210","1956-07-06",60.98,55.04,94.00,0.00,0.00
"CA003012210","1956-07-07",69.08,51.98,0.00,0.00,0.00
"CA003012210","1956-07-08",75.02,51.08,0.00,0.00,0.00
"CA003012210","1956-07-09",82.04,53.06,112.00,0.00,0.00
"CA003012210","1956-07-10",78.08,55.94,0.00,0.00,0.00
"CA003012210","1956-07-11",78.08,59.00,0.00,0.00,0.00
"CA003012210","1956-07-12",82.04,53.96,0.00,0.00,0.00
"CA003012210","1956-07-13",69.98,53.96,8.00,0.00,0.00
"CA003012210","1956-07-14",68.00,53.06,0.00,0.00,0.00
"CA003012210","1956-07-15",69.98,53.96,0.00,0.00,0.00
"CA003012210","1956-07-16",71.96,51.08,5.00,0.00,0.00
"CA003012210","1956-07-17",71.06,51.98,0.00,0.00,0.00
"CA003012210","1956-07-18",82.04,55.04,0.00,0.00,0.00
"CA003012210","1956-07-19",84.92,60.98,0.00,0.00,0.00
"CA003012210","1956-07-20",89.96,60.08,0.00,0.00,0.00
"CA003012210","1956-07-21",84.02,62.96,0.00,0.00,0.00
"CA003012210","1956-07-22",80.06,62.06,0.00,0.00,0.00
"CA003012210","1956-07-23",77.00,57.92,56.00,0.00,0.00
"CA003012210","1956-07-24",73.94,60.08,0.00,0.00,0.00
"CA003012210","1956-07-25",62.06,53.96,124.00,0.00,0.00
"CA003012210","1956-07-26",57.02,48.92,10.00,0.00,0.00
"CA003012210","1956-07-27",60.98,42.98,157.00,0.00,0.00
"CA003012210","1956-07-28",62.06,50.00,0.00,0.00,0.00
"CA003012210","1956-07-29",62.06,48.02,0.00,0.00,0.00
"CA003012210","1956-07-30",69.98,46.04,0.00,0.00,0.00
"CA003012210","1956-07-31",75.02,53.06,0.00,0.00,0.00
"CA003012210","1956-08-01",73.94,51.98,0.00,0.00,0.00
"CA003012210","1956-08-02",78.08,57.02,0.00,0.00,0.00
"CA003012210","1956-08-03",71.96,59.00,64.00,0.00,0.00
"CA003012210","1956-08-04",57.92,51.08,208.00,0.00,0.00
"CA003012210","1956-08-05",69.08,53.06,0.00,0.00,0.00
"CA003012210","1956-08-06",71.96,51.98,0.00,0.00,0.00
"CA003012210","1956-08-07",73.04,53.96,5.00,0.00,0.00
"CA003012210","1956-08-08",75.02,53.96,41.00,0.00,0.00
"CA003012210","1956-08-09",68.00,53.06,15.00,0.00,0.00
"CA003012210","1956-08-10",71.96,50.00,0.00,0.00,0.00
"CA003012210","1956-08-11",68.00,55.94,0.00,0.00,0.00
"CA003012210","1956-08-12",77.00,53.06,0.00,0.00,0.00
"CA003012210","1956-08-13",69.98,55.04,0.00,0.00,0.00
"CA003012210","1956-08-14",84.02,51.98,0.00,0.00,0.00
"CA003012210","1956-08-15",82.04,55.94,0.00,0.00,0.00
"CA003012210","1956-08-16",50.00,39.92,226.00,0.00,0.00
"CA003012210","1956-08-17",55.94,42.98,0.00,0.00,0.00
"CA003012210","1956-08-18",62.06,48.92,0.00,0.00,0.00
"CA003012210","1956-08-19",69.98,46.04,0.00,0.00,0.00
"CA003012210","1956-08-20",80.06,48.02,0.00,0.00,0.00
"CA003012210","1956-08-21",77.00,60.98,0.00,0.00,0.00
"CA003012210","1956-08-22",78.98,60.98,0.00,0.00,0.00
"CA003012210","1956-08-23",69.98,55.94,51.00,0.00,0.00
"CA003012210","1956-08-24",73.04,51.08,0.00,0.00,0.00
"CA003012210","1956-08-25",78.08,55.94,0.00,0.00,0.00
"CA003012210","1956-08-26",78.98,53.06,5.00,0.00,0.00
"CA003012210","1956-08-27",62.96,55.04,89.00,0.00,0.00
"CA003012210","1956-08-28",64.94,42.08,0.00,0.00,0.00
"CA003012210","1956-08-29",64.94,48.02,5.00,0.00,0.00
"CA003012210","1956-08-30",62.96,46.04,0.00,0.00,0.00
"CA003012210","1956-08-31",73.04,46.94,0.00,0.00,0.00
"CA003012210","1956-09-01",51.98,46.04,107.00,0.00,0.00
"CA003012210","1956-09-02",37.04,33.08,107.00,69.00,0.00
"CA003012210","1956-09-03",39.92,32.00,0.00,0.00,0.00
"CA003012210","1956-09-04",48.02,35.06,0.00,0.00,0.00
"CA003012210","1956-09-05",53.96,33.98,0.00,0.00,0.00
"CA003012210","1956-09-06",60.98,42.08,0.00,0.00,0.00
"CA003012210","1956-09-07",66.02,41.00,0.00,0.00,0.00
"CA003012210","1956-09-08",66.92,41.00,10.00,0.00,0.00
"CA003012210","1956-09-09",64.94,44.96,13.00,0.00,0.00
"CA003012210","1956-09-10",69.98,48.92,0.00,0.00,0.00
"CA003012210","1956-09-11",68.00,48.92,0.00,0.00,0.00
"CA003012210","1956-09-12",55.94,50.00,0.00,0.00,0.00
"CA003012210","1956-09-13",62.06,41.00,38.00,0.00,0.00
"CA003012210","1956-09-14",60.98,50.00,0.00,0.00,0.00
"CA003012210","1956-09-15",68.00,51.08,0.00,0.00,0.00
"CA003012210","1956-09-16",66.02,42.98,0.00,0.00,0.00
"CA003012210","1956-09-17",73.94,42.98,0.00,0.00,0.00
"CA003012210","1956-09-18",73.04,51.08,0.00,0.00,0.00
"CA003012210","1956-09-19",68.00,48.02,0.00,0.00,0.00
"CA003012210","1956-09-20",71.06,44.96,109.00,0.00,0.00
"CA003012210","1956-09-21",55.04,46.04,18.00,0.00,0.00
"CA003012210","1956-09-22",57.92,39.92,0.00,0.00,0.00
"CA003012210","1956-09-23",59.00,35.96,3.00,0.00,0.00
"CA003012210","1956-09-24",50.00,37.04,0.00,0.00,0.00
"CA003012210","1956-09-25",57.02,37.94,0.00,0.00,0.00
"CA003012210","1956-09-26",50.00,37.94,3.00,0.00,0.00
"CA003012210","1956-09-27",42.98,32.00,0.00,0.00,0.00
"CA003012210","1956-09-28",44.06,23.00,3.00,0.00,0.00
"CA003012210","1956-09-29",53.06,35.96,18.00,0.00,0.00
"CA003012210","1956-09-30",55.94,41.00,0.00,0.00,0.00
"CA003012210","1956-10-01",60.08,46.04,0.00,0.00,0.00
"CA003012210","1956-10-02",50.00,37.94,8.00,0.00,0.00
"CA003012210","1956-10-03",51.98,28.94,0.00,0.00,0.00
"CA003012210","1956-10-04",59.00,35.06,20.00,0.00,0.00
"CA003012210","1956-10-05",50.00,37.94,0.00,0.00,0.00
"CA003012210","1956-10-06",75.92,35.96,0.00,0.00,0.00
"CA003012210","1956-10-07",50.00,41.00,0.00,0.00,0.00
"CA003012210","1956-10-08",46.94,26.96,0.00,0.00,0.00
"CA003012210","1956-10-09",60.08,28.04,0.00,0.00,0.00
"CA003012210","1956-10-10",60.08,35.96,0.00,0.00,0.00
"CA003012210","1956-10-11",66.92,39.92,0.00,0.00,0.00
"CA003012210","1956-10-12",55.94,37.94,0.00,0.00,0.00
"CA003012210","1956-10-13",46.04,26.06,0.00,0.00,0.00
"CA003012210","1956-10-14",51.98,26.06,0.00,0.00,0.00
"CA003012210","1956-10-15",57.02,33.08,0.00,0.00,0.00
"CA003012210","1956-10-16",50.00,37.94,0.00,0.00,0.00
"CA003012210","1956-10-17",51.98,30.92,0.00,0.00,0.00
"CA003012210","1956-10-18",53.96,37.94,0.00,0.00,0.00
"CA003012210","1956-10-19",48.92,30.02,0.00,0.00,0.00
"CA003012210","1956-10-20",46.94,35.06,0.00,0.00,0.00
"CA003012210","1956-10-21",48.02,24.08,10.00,0.00,0.00
"CA003012210","1956-10-22",46.04,26.06,0.00,0.00,0.00
"CA003012210","1956-10-23",37.94,28.94,0.00,0.00,0.00
"CA003012210","1956-10-24",42.08,21.02,0.00,0.00,0.00
"CA003012210","1956-10-25",39.02,28.94,0.00,0.00,0.00
"CA003012210","1956-10-26",26.06,19.94,38.00,38.00,0.00
"CA003012210","1956-10-27",17.96,14.00,46.00,46.00,40.00
"CA003012210","1956-10-28",24.98,12.02,0.00,0.00,80.00
"CA003012210","1956-10-29",35.06,15.98,0.00,0.00,60.00
"CA003012210","1956-10-30",30.92,15.98,23.00,23.00,50.00
"CA003012210","1956-10-31",33.08,17.06,0.00,0.00,70.00
"CA003012210","1956-11-01",28.94,12.02,0.00,0.00,50.00
"CA003012210","1956-11-02",33.98,12.92,0.00,0.00,40.00
"CA003012210","1956-11-03",44.06,28.94,0.00,0.00,40.00
"CA003012210","1956-11-04",46.04,28.94,0.00,0.00,20.00
"CA003012210","1956-11-05",35.06,32.00,0.00,0.00,0.00
"CA003012210","1956-11-06",32.00,26.06,0.00,0.00,0.00
"CA003012210","1956-11-07",35.96,23.00,0.00,0.00,0.00
"CA003012210","1956-11-08",35.06,19.94,0.00,0.00,0.00
"CA003012210","1956-11-09",48.02,28.04,0.00,0.00,0.00
"CA003012210","1956-11-10",46.94,39.92,0.00,0.00,0.00
"CA003012210","1956-11-11",37.94,30.92,0.00,0.00,0.00
"CA003012210","1956-11-12",46.94,28.04,0.00,0.00,0.00
"CA003012210","1956-11-13",33.98,28.04,3.00,3.00,0.00
"CA003012210","1956-11-14",32.00,15.08,0.00,0.00,0.00
"CA003012210","1956-11-15",30.92,17.96,0.00,0.00,0.00
"CA003012210","1956-11-16",41.00,24.08,0.00,0.00,0.00
"CA003012210","1956-11-17",39.02,26.06,0.00,0.00,0.00
"CA003012210","1956-11-18",21.02,12.02,0.00,0.00,0.00
"CA003012210","1956-11-19",39.02,8.96,0.00,0.00,0.00
"CA003012210","1956-11-20",37.94,28.04,10.00,10.00,0.00
"CA003012210","1956-11-21",46.04,26.06,23.00,23.00,0.00
"CA003012210","1956-11-22",48.02,37.04,0.00,0.00,0.00
"CA003012210","1956-11-23",53.96,37.94,0.00,0.00,0.00
"CA003012210","1956-11-24",46.94,37.04,0.00,0.00,0.00
"CA003012210","1956-11-25",44.96,26.06,0.00,0.00,0.00
"CA003012210","1956-11-26",48.92,26.06,0.00,0.00,0.00
"CA003012210","1956-11-27",42.98,28.94,0.00,0.00,0.00
"CA003012210","1956-11-28",55.04,28.04,0.00,0.00,0.00
"CA003012210","1956-11-29",53.06,33.98,0.00,0.00,0.00
"CA003012210","1956-11-30",51.08,30.02,0.00,0.00,0.00
"CA003012210","1956-12-01",46.04,35.06,3.00,0.00,0.00
"CA003012210","1956-12-02",41.00,-0.04,0.00,0.00,0.00
"CA003012210","1956-12-03",-5.98,-9.94,56.00,56.00,0.00
"CA003012210","1956-12-04",-9.04,-13.00,0.00,0.00,60.00
"CA003012210","1956-12-05",-13.00,-20.02,0.00,0.00,60.00
"CA003012210","1956-12-06",-4.00,-27.04,0.00,0.00,60.00
"CA003012210","1956-12-07",3.92,-11.92,0.00,0.00,60.00
"CA003012210","1956-12-08",5.00,-9.94,3.00,3.00,60.00
"CA003012210","1956-12-09",3.02,-7.06,86.00,86.00,60.00
"CA003012210","1956-12-10",1.04,-9.04,0.00,0.00,140.00
"CA003012210","1956-12-11",-9.94,-23.08,0.00,0.00,140.00
"CA003012210","1956-12-12",-2.02,-23.08,0.00,0.00,140.00
"CA003012210","1956-12-13",3.02,-7.06,3.00,3.00,140.00
"CA003012210","1956-12-14",-2.92,-7.96,3.00,3.00,150.00
"CA003012210","1956-12-15",-0.04,-13.00,147.00,147.00,150.00
"CA003012210","1956-12-16",1.04,-16.06,0.00,0.00,300.00
"CA003012210","1956-12-17",33.98,-14.98,0.00,0.00,290.00
"CA003012210","1956-12-18",42.08,15.08,0.00,0.00,290.00
"CA003012210","1956-12-19",42.08,24.08,0.00,0.00,250.00
"CA003012210","1956-12-20",39.02,30.02,5.00,5.00,190.00
"CA003012210","1956-12-21",30.02,21.92,0.00,0.00,170.00
"CA003012210","1956-12-22",26.96,6.98,18.00,18.00,170.00
"CA003012210","1956-12-23",30.92,14.00,0.00,0.00,190.00
"CA003012210","1956-12-24",41.00,21.92,0.00,0.00,190.00
"CA003012210","1956-12-25",46.04,35.96,0.00,0.00,180.00
"CA003012210","1956-12-26",46.04,33.08,0.00,0.00,110.00
"CA003012210","1956-12-27",44.06,39.02,0.00,0.00,20.00
"CA003012210","1956-12-28",51.08,33.98,0.00,0.00,20.00
"CA003012210","1956-12-29",46.04,33.08,0.00,0.00,0.00
"CA003012210","1956-12-30",37.04,30.92,0.00,0.00,0.00